Date String (YYYY-MM-DD hh:mm:ss) UTC,Instrument flags,Ambient pressure (hPa),Sample flow (lpm),Bypass flow (lpm),Sample temperature (°C),Ambient temperature (°C),ASC tube jacket temperature (°C),LED temperature (°C),Box temperature (°C),Sample RH (%),Span deviation,Mass concentration (μg/m³),Mass concentration (μg/m³),Mass concentration (μg/m³)
DateTimeUTC,F1_M11,P_M11,Q1_M11,Q2_M11,T1_M11,T2_M11,T3_M11,T4_M11,T5_M11,U1_M11,ZSPAN_M11,X2_M11,X0_M11,X1_M11
2023-03-08 21:00:00,,0823.6,5.00,0.00,22.2,20.6,00.0,31.0,23.9,13.5,-002.4,0013.97,0018.30,0013.38
2023-03-08 21:01:00,,0823.7,5.00,0.00,22.2,20.5,00.0,31.0,23.9,13.6,-002.4,0013.99,0018.65,0013.39
2023-03-08 21:02:00,,0823.7,5.00,0.00,22.2,20.5,00.0,31.0,23.9,13.7,-002.2,0013.99,0018.59,0013.38
2023-03-08 21:03:00,,0823.7,4.99,0.00,22.2,20.5,00.0,30.9,23.9,13.8,-002.1,0014.00,0018.44,0013.37
2023-03-08 21:04:00,,0823.7,5.03,0.00,22.1,20.5,00.0,30.9,23.9,13.7,-001.9,0014.00,0019.01,0013.37
2023-03-08 21:05:00,,0823.7,4.98,0.00,22.1,20.5,00.0,30.9,23.9,13.6,-001.7,0014.00,0019.28,0013.37
2023-03-08 21:06:00,,0823.6,4.99,0.00,22.1,20.5,00.0,30.9,23.9,13.6,-001.7,0013.95,0019.14,0013.35
2023-03-08 21:07:00,,0823.6,5.04,0.00,22.1,20.5,00.0,30.9,23.9,13.6,-001.7,0013.94,0019.12,0013.32
2023-03-08 21:08:00,,0823.5,5.01,0.00,22.1,20.5,00.0,30.9,23.8,13.5,-001.7,0013.95,0019.38,0013.32
2023-03-08 21:09:00,,0823.4,5.01,0.00,22.1,20.5,00.0,30.9,23.9,13.6,-001.9,0013.98,0019.16,0013.33
2023-03-08 21:10:00,,0823.5,4.99,0.00,22.1,21.1,00.0,30.9,24.0,13.6,-002.2,0013.99,0019.78,0013.34
2023-03-08 21:11:00,,0823.5,5.04,0.00,22.3,22.3,00.0,30.9,24.3,13.6,-002.3,0013.96,0019.69,0013.31
2023-03-08 21:12:00,,0823.6,4.98,0.00,22.4,22.8,00.0,30.9,24.4,13.5,-002.1,0013.89,0019.27,0013.26
2023-03-08 21:13:00,,0823.5,5.01,0.00,22.4,22.4,00.0,31.0,24.4,13.4,-002.1,0013.80,0019.16,0013.19
2023-03-08 21:14:00,,0823.5,4.98,0.00,22.4,22.1,00.0,31.0,24.3,13.4,-002.1,0013.71,0019.61,0013.11
2023-03-08 21:15:00,,0823.4,4.98,0.00,22.4,21.8,00.0,31.0,24.3,13.4,-002.2,0013.69,0019.30,0013.07
2023-03-08 21:16:00,,0823.4,5.01,0.00,22.4,21.6,00.0,31.0,24.3,13.4,-002.2,0013.59,0019.11,0013.01
2023-03-08 21:17:00,,0823.4,4.99,0.00,22.5,21.5,00.0,31.1,24.2,13.4,-002.0,0013.60,0019.45,0012.98
2023-03-08 21:18:00,,0823.4,5.00,0.00,22.4,21.3,00.0,31.1,24.2,13.4,-002.0,0013.55,0019.35,0012.92
2023-03-08 21:19:00,,0823.4,5.00,0.00,22.4,21.3,00.0,31.1,24.2,13.4,-002.0,0013.45,0019.07,0012.86
2023-03-08 21:20:00,,0823.4,4.99,0.00,22.4,21.2,00.0,31.1,24.2,13.4,-002.0,0013.35,0018.83,0012.79
2023-03-08 21:21:00,,0823.3,5.01,0.00,22.4,21.1,00.0,31.1,24.2,13.3,-002.0,0013.28,0018.70,0012.71
2023-03-08 21:22:00,,0823.4,5.02,0.00,22.4,21.1,00.0,31.1,24.2,13.3,-002.0,0013.23,0018.97,0012.65
2023-03-08 21:23:00,,0823.3,4.99,0.00,22.4,21.0,00.0,31.1,24.2,13.3,-001.9,0013.20,0018.96,0012.61
2023-03-08 21:24:00,,0823.2,5.00,0.00,22.4,21.0,00.0,31.1,24.2,13.4,-002.2,0013.21,0019.45,0012.61
2023-03-08 21:25:00,,0823.4,5.00,0.00,22.4,21.0,00.0,31.1,24.2,13.5,-002.3,0013.20,0019.23,0012.59
2023-03-08 21:26:00,,0823.4,4.99,0.00,22.4,20.9,00.0,31.1,24.2,13.4,-002.5,0013.15,0019.10,0012.55
2023-03-08 21:27:00,,0823.3,5.00,0.00,22.4,20.8,00.0,31.1,24.1,13.5,-002.5,0013.12,0018.85,0012.50
2023-03-08 21:28:00,,0823.3,5.00,0.00,22.4,20.8,00.0,31.1,24.1,13.5,-002.5,0013.06,0018.55,0012.45
2023-03-08 21:29:00,,0823.3,5.00,0.00,22.4,20.8,00.0,31.1,24.1,13.7,-002.6,0013.01,0018.51,0012.40
2023-03-08 21:30:00,,0823.3,5.00,0.00,22.4,20.8,00.0,31.1,24.1,13.7,-002.6,0012.97,0018.38,0012.36
2023-03-08 21:31:00,,0823.4,5.01,0.00,22.3,20.7,00.0,31.1,24.1,13.6,-002.5,0012.94,0019.06,0012.32
2023-03-08 21:32:00,,0823.3,5.00,0.00,22.3,20.7,00.0,31.1,24.0,13.6,-002.4,0012.90,0018.41,0012.30
2023-03-08 21:33:00,,0823.4,5.00,0.00,22.3,20.7,00.0,31.1,24.0,13.6,-002.3,0012.92,0018.12,0012.30
2023-03-08 21:34:00,,0823.3,5.00,0.00,22.3,20.7,00.0,31.1,24.0,13.6,-002.4,0012.90,0018.12,0012.27
2023-03-08 21:35:00,,0823.3,5.01,0.00,22.3,20.7,00.0,31.1,24.0,13.6,-002.2,0012.87,0017.81,0012.23
2023-03-08 21:36:00,,0823.4,4.99,0.00,22.3,20.7,00.0,31.1,24.0,13.6,-002.0,0012.86,0017.71,0012.20
2023-03-08 21:37:00,,0823.3,4.99,0.00,22.3,20.7,00.0,31.1,24.0,13.6,-002.1,0012.85,0017.43,0012.16
2023-03-08 21:38:00,,0823.3,5.00,0.00,22.3,20.7,00.0,31.1,24.0,13.7,-002.1,0012.81,0017.38,0012.12
2023-03-08 21:39:00,,0823.3,5.00,0.00,22.3,20.9,00.0,31.0,24.0,13.6,-002.1,0012.76,0017.24,0012.09
2023-03-08 21:40:00,,0823.4,5.01,0.00,22.4,22.0,00.0,31.0,24.3,13.5,-002.0,0012.67,0017.01,0012.03
2023-03-08 21:41:00,,0823.4,4.99,0.00,22.5,23.1,00.0,31.1,24.6,13.5,-001.8,0012.64,0017.38,0012.03
2023-03-08 21:42:00,,0823.4,5.00,0.00,22.6,23.2,00.0,31.1,24.6,13.4,-001.6,0012.63,0017.52,0012.01
2023-03-08 21:43:00,,0823.4,4.99,0.00,22.6,22.7,00.0,31.1,24.6,13.4,-001.5,0012.63,0017.96,0011.98
2023-03-08 21:44:00,,0823.3,4.99,0.00,22.6,22.3,00.0,31.2,24.5,13.4,-001.5,0012.58,0018.29,0011.94
2023-03-08 21:45:00,,0823.2,5.00,0.00,22.6,22.1,00.0,31.2,24.5,13.4,-001.7,0012.56,0018.51,0011.91
2023-03-08 21:46:00,,0823.2,4.99,0.00,22.6,21.9,00.0,31.2,24.5,13.4,-001.7,0012.53,0018.46,0011.91
2023-03-08 21:47:00,,0823.3,4.99,0.00,22.6,21.7,00.0,31.2,24.4,13.4,-001.7,0012.53,0018.41,0011.93
2023-03-08 21:48:00,,0823.3,5.01,0.00,22.6,21.6,00.0,31.3,24.4,13.4,-001.5,0012.55,0018.38,0011.94
2023-03-08 21:49:00,,0823.4,5.00,0.00,22.6,21.4,00.0,31.3,24.4,13.4,-001.6,0012.62,0018.55,0011.96
2023-03-08 21:50:00,,0823.4,4.99,0.00,22.6,21.4,00.0,31.3,24.4,13.4,-001.7,0012.64,0018.71,0011.97
2023-03-08 21:51:00,,0823.4,5.00,0.00,22.6,21.3,00.0,31.3,24.4,13.4,-001.6,0012.70,0019.13,0012.01
2023-03-08 21:52:00,,0823.3,4.98,0.00,22.6,21.3,00.0,31.3,24.4,13.4,-001.7,0012.72,0019.15,0012.03
2023-03-08 21:53:00,,0823.3,4.96,0.00,22.6,21.2,00.0,31.3,24.3,13.5,-001.8,0012.73,0018.84,0012.03
2023-03-08 21:54:00,,0823.2,5.03,0.00,22.6,21.1,00.0,31.3,24.3,13.6,-001.9,0012.75,0018.54,0012.04
2023-03-08 21:55:00,,0823.3,5.01,0.00,22.6,21.1,00.0,31.3,24.3,13.5,-002.0,0012.80,0018.79,0012.06
2023-03-08 21:56:00,,0823.2,4.97,0.00,22.6,21.1,00.0,31.3,24.3,13.4,-002.2,0012.82,0019.16,0012.09
2023-03-08 21:57:00,,0823.2,4.98,0.00,22.6,21.0,00.0,31.3,24.3,13.3,-002.3,0012.83,0019.07,0012.09
2023-03-08 21:58:00,,0823.2,5.02,0.00,22.6,21.0,00.0,31.3,24.3,13.4,-002.4,0012.86,0018.87,0012.10
2023-03-08 21:59:00,,0823.3,5.01,0.00,22.6,21.0,00.0,31.3,24.3,13.4,-002.7,0012.83,0018.88,0012.10
